This demonstration page uses our WeatherBlox Daily Observations layout. Learn more.

Left ArrowRight Arrow

39.51506, -84.39828

Hourly Observations for July 21, 2021

Temp ( °F °C ) Dew Point ( °F °C ) Humidity (%) Winds ( mph kmh ) Pressure ( in mb ) Visibility ( mi km ) Precip ( " mm )
12:15 am 00:15 Clear 66 19 66 19 100 100 N N/A 30.02 1016 10 16 N/A
12:35 am 00:35 Clear 66 19 N/A N/A N N/A 30.02 1016 10 16 N/A
12:55 am 00:55 Clear 66 19 N/A N/A N N/A 30.02 1016 10 16 N/A
1:15 am 01:15 Clear 66 19 N/A N/A N N/A 30.02 1016 7 11 N/A
1:35 am 01:35 Clear 66 19 N/A N/A N N/A 30.01 1016 10 16 N/A
1:55 am 01:55 Clear 66 19 N/A N/A N N/A 30.01 1016 10 16 N/A
2:15 am 02:15 Clear 67 19.2 65 18.6 96 96 N N/A 30.01 1016 10 16 N/A
2:35 am 02:35 Clear 67 19.2 65 18.5 96 96 N N/A 30.00 1016 10 16 N/A
2:55 am 02:55 Clear 66 19 N/A N/A N N/A 30.00 1016 7 11 N/A
3:15 am 03:15 Clear 64 18 N/A N/A N N/A 29.99 1016 7 11 N/A
3:35 am 03:35 Clear 64 18 N/A N/A SSE 3 6 29.99 1016 7 11 N/A
3:55 am 03:55 Hazy 63 17 N/A N/A N N/A 29.99 1016 5 8 N/A
4:15 am 04:15 Hazy 64 18 N/A N/A N N/A 29.99 1016 5 8 N/A
4:35 am 04:35 Hazy 63 17 N/A N/A N N/A 29.99 1016 5 8 N/A
4:55 am 04:55 Clear with Mist and Fog 63 17 N/A N/A N N/A 30.00 1016 3 5 N/A
5:15 am 05:15 Mostly Cloudy with Fog 63 17 N/A N/A N N/A 30.00 1016 0 0 N/A
5:35 am 05:35 Mostly Cloudy with Mist and Fog 63 17 N/A N/A N N/A 30.01 1016 2 3 N/A
5:55 am 05:55 Mostly Clear with Fog 63 17 N/A N/A N N/A 30.01 1016 0 0 N/A
6:15 am 06:15 Mostly Cloudy with Fog 63 17 N/A N/A N N/A 30.02 1017 1 1 N/A
6:35 am 06:35 Sunny with Mist and Fog 63 17 N/A N/A NNE 3 6 30.02 1017 4 6 N/A
6:55 am 06:55 Hazy 64 18 N/A N/A NE 5 7 30.03 1017 5 8 N/A
7:15 am 07:15 Hazy 64 18 N/A N/A N 3 6 30.04 1017 4 6 N/A
7:35 am 07:35 Hazy 66 19 N/A N/A N 3 6 30.04 1017 4 6 N/A
7:55 am 07:55 Sunny with Mist and Fog 67 19.3 66 19.1 99 99 N 6 9 30.05 1017 4 6 N/A
8:15 am 08:15 Cloudy with Mist and Fog 67 19.6 67 19.5 99 99 NNE 8 13 30.06 1018 4 6 N/A
8:35 am 08:35 Cloudy with Mist and Fog 68 20 68 19.8 99 99 NNE 7 11 30.05 1018 4 6 N/A
8:55 am 08:55 Cloudy with Mist and Fog 69 20.4 68 20 98 98 NNE 6 9 30.06 1018 4 6 N/A
9:15 am 09:15 Cloudy with Mist and Fog 69 20.8 69 20.3 97 97 NNE 7 11 30.07 1018 4 6 N/A
9:35 am 09:35 Mostly Cloudy with Mist and Fog 70 21.3 69 20.7 96 96 NNE 7 11 30.08 1019 4 6 N/A
9:55 am 09:55 Cloudy with Mist and Fog 71 21.6 69 20.5 93 93 N 7 11 30.08 1019 4 6 N/A
10:15 am 10:15 Cloudy with Mist and Fog 72 22.1 69 20.5 91 91 NE 6 9 30.08 1019 5 8 N/A
10:35 am 10:35 Cloudy with Mist and Fog 72 22.4 69 20.5 89 89 NNE 6 9 30.08 1019 5 8 N/A
10:55 am 10:55 Cloudy 73 22.6 68 19.9 85 85 NNE 8 13 30.09 1019 7 11 N/A
11:15 am 11:15 Cloudy 73 22.8 68 19.9 84 84 N 9 15 30.09 1019 7 11 N/A
11:35 am 11:35 Cloudy 73 23 67 19.6 81 81 N 6 9 30.10 1019 7 11 N/A
11:55 am 11:55 Cloudy with Haze 75 23.7 67 19.5 77 77 NNW 7 11 30.10 1019 7 11 N/A
12:15 pm 12:15 Hazy 76 24.4 67 19.2 73 73 N 8 13 30.10 1019 7 11 N/A
12:35 pm 12:35 Partly Cloudy 76 24.3 66 18.8 71 71 NNW 9 15 30.10 1019 7 11 N/A
12:55 pm 12:55 Hazy 77 25 66 19.1 70 70 N 7 11 30.10 1019 7 11 0.01 0.25
1:15 pm 13:15 Sunny 78 25.3 65 18.6 67 67 N 8 13 30.09 1019 7 11 N/A
1:35 pm 13:35 Partly Cloudy 78 25.4 65 18.5 66 66 N 9 15 30.08 1019 7 11 N/A
1:55 pm 13:55 Partly Cloudy 78 25.8 65 18.5 64 64 NNE 6 9 30.08 1019 7 11 N/A
2:15 pm 14:15 Partly Cloudy 79 25.9 65 18.2 63 63 N 8 13 30.08 1019 10 16 N/A
2:35 pm 14:35 Partly Cloudy 79 26 65 18.3 63 63 NNE 8 13 30.08 1019 7 11 N/A
2:55 pm 14:55 Mostly Cloudy 78 25.4 65 18.1 64 64 NNE 8 13 30.08 1019 7 11 N/A
3:15 pm 15:15 Mostly Cloudy 78 25.8 65 18.1 63 63 N 8 13 30.08 1019 10 16 N/A
3:35 pm 15:35 Sunny 79 26.3 64 17.5 58 58 NNE 9 15 30.07 1018 7 11 N/A
3:55 pm 15:55 Partly Cloudy 78 25.7 64 17.6 61 61 N 8 13 30.07 1018 10 16 N/A
4:15 pm 16:15 Partly Cloudy 78 25.7 64 17.8 62 62 NNE 7 11 30.07 1018 10 16 N/A
4:35 pm 16:35 Partly Cloudy 79 26.2 63 17.1 57 57 N 8 13 30.07 1018 10 16 N/A
4:55 pm 16:55 Partly Cloudy 78 25.5 63 17.3 61 61 N 7 11 30.07 1018 10 16 N/A
5:15 pm 17:15 Mostly Cloudy 78 25.4 63 17.2 61 61 N 8 13 30.07 1018 10 16 N/A
5:35 pm 17:35 Sunny 80 26.4 63 17.4 58 58 NNE 9 15 30.07 1018 10 16 N/A
5:55 pm 17:55 Sunny 79 26 63 17 58 58 NNE 8 13 30.07 1018 10 16 N/A
6:15 pm 18:15 Sunny 79 25.9 63 17.4 60 60 N 9 15 30.07 1018 10 16 N/A
6:35 pm 18:35 Sunny 78 25.5 63 17.3 61 61 N 6 9 30.07 1018 10 16 N/A
6:55 pm 18:55 Sunny 78 25.4 62 16.5 58 58 N 7 11 30.07 1018 10 16 N/A
7:15 pm 19:15 Sunny 77 25.1 63 17.1 61 61 N 8 13 30.07 1018 10 16 N/A
7:35 pm 19:35 Sunny 76 24.4 62 16.9 63 63 N 3 6 30.08 1019 10 16 N/A
7:55 pm 19:55 Sunny 75 23.9 62 16.9 65 65 N 5 7 30.09 1019 10 16 N/A
8:15 pm 20:15 Sunny 73 22.9 64 17.7 73 73 N 5 7 30.09 1019 10 16 N/A
8:35 pm 20:35 Sunny 72 22.1 64 17.8 77 77 N 5 7 30.10 1019 10 16 N/A
8:55 pm 20:55 Sunny 70 21.3 64 17.9 81 81 N 3 6 30.11 1020 10 16 N/A
9:15 pm 21:15 Clear 70 20.9 64 17.9 83 83 N 3 6 30.11 1020 10 16 N/A
9:35 pm 21:35 Clear 68 20.2 65 18.1 88 88 N 5 7 30.12 1020 10 16 N/A
9:55 pm 21:55 Clear 67 19.6 64 17.9 90 90 N 5 7 30.14 1021 10 16 N/A
10:15 pm 22:15 Clear 67 19.3 64 17.8 91 91 NNE 5 7 30.15 1021 10 16 N/A
10:35 pm 22:35 Clear 66 19.1 64 17.9 93 93 N N/A 30.15 1021 10 16 N/A
10:55 pm 22:55 Clear 66 18.8 65 18.1 96 96 N 3 6 30.16 1021 10 16 N/A
11:15 pm 23:15 Clear 64 18 64 17.8 99 99 N 3 6 30.16 1021 10 16 N/A
11:35 pm 23:35 Clear 64 18 64 17.6 98 98 N 5 7 30.17 1022 10 16 N/A
11:55 pm 23:55 Clear 63 17 63 17 100 100 N N/A 30.17 1022 10 16 N/A

Powered by AerisWeather